Location: Unspecified
(0.0000°N, 0.0000°E)
Time: 08:31:56
(UTC+00:00)

VELOX 1 - Visible Passes

Search period start: 23 September 2023 00:00
Search period end: 03 October 2023 00:00
Orbit: 615 x 627 km, 98.4° (Epoch: 22 September)

Date Brightness Start Highest point End Pass type
(mag) Time Alt. Az. Time Alt. Az. Time Alt. Az.
23 Sep ? 18:53:51 10° N 18:58:07 63° WNW 19:02:25 10° SSW visible
24 Sep ? 19:11:37 10° NNW 19:15:33 35° WNW 19:19:30 10° SW visible
25 Sep ? 19:29:46 10° NNW 19:32:57 20° WNW 19:36:09 10° SW visible
26 Sep ? 18:10:50 10° NE 18:14:33 28° ESE 18:18:16 10° SSE visible
26 Sep ? 19:48:53 10° WNW 19:50:21 11° WNW 19:51:48 10° W visible
27 Sep ? 18:27:45 10° NNE 18:31:57 50° ESE 18:36:08 10° S visible
28 Sep ? 18:45:00 10° NNE 18:49:19 89° WNW 18:53:39 10° SSW visible
29 Sep ? 19:02:31 10° N 19:06:42 49° WNW 19:10:52 10° SSW visible
30 Sep ? 19:20:22 10° NNW 19:24:03 28° WNW 19:27:45 10° SW visible
01 Oct ? 19:38:43 10° NW 19:41:24 16° WNW 19:44:04 10° WSW visible
02 Oct ? 18:19:00 10° NE 18:22:57 35° ESE 18:26:52 10° SSE visible
